User: anonymous   Login
Location: Caltech
(34.1382°N, 118.1253°W)
Time: 01:52:11
(UTC-07:00)
Language:

NOAA 19 - Orbit

View from above orbital plane
View from above orbital plane
View from above satellite
View from above satellite

Ground track
Ground track

The orbit data is extracted from the following two-line orbital elements,

1 33591U 09005A   15245.47767347  .00000093  00000-0  75321-4 0  9991
2 33591  98.9963 195.5673 0013372 316.2130  43.7979 14.11972177338390
Epoch (UTC): 02 September 2015 11:27:50
Eccentricity: 0.0013372
inclination: 98.9963°
perigee height: 843 km
apogee height: 862 km
right ascension of ascending node: 195.5673°
argument of perigee: 316.2130°
revolutions per day: 14.11972177
mean anomaly at epoch: 43.7979°
orbit number at epoch: 33839

The dashed part of the orbit path shows where the satellite is in the earth's shadow,  

DLR